User: anonymous   Login
Location: Radomski Observatory
(40.2854°N, 79.5145°W)
Time: 01:26:11
(UTC-04:00)
Language:

Uosat F - Orbit

View from above orbital plane
View from above orbital plane
View from above satellite
View from above satellite

Ground track
Ground track

The orbit data is extracted from the following two-line orbital elements,

1 21575U 91050B   16268.03096532  .00000038  00000-0  26484-4 0  9995
2 21575  98.7641 271.9966 0007664  20.7571 339.3927 14.40759650322950
Epoch (UTC): 24 September 2016 00:44:35
Eccentricity: 0.0007664
inclination: 98.7641°
perigee height: 750 km
apogee height: 761 km
right ascension of ascending node: 271.9966°
argument of perigee: 20.7571°
revolutions per day: 14.40759650
mean anomaly at epoch: 339.3927°
orbit number at epoch: 32295

The dashed part of the orbit path shows where the satellite is in the earth's shadow,  

DLR